EW5937 Weather Reports


time (UTC)temp
C
wind
direction
speed
KPH
gust
KPH
rain 1hr
cm
rain 24hr
cm
rain mn
cm
humidity
%
barometer
mb
20260906223833 32 347 0.0 8.0 0.00 0.00 0.00 31 1001.6
20260906222833 32 328 0.0 3.2 0.00 0.00 0.00 30 1001.7
20260906221833 32 316 0.0 4.8 0.00 0.00 0.00 30 1001.7
20260906220833 33 337 0.0 8.0 0.00 0.00 0.00 29 1001.9
20260906215833 33 6 0.0 6.4 0.00 0.00 0.00 29 1002.1
20260906214833 32 49 0.0 8.0 0.00 0.00 0.00 30 1002.2
20260906213833 32 38 0.0 6.4 0.00 0.00 0.00 29 1002.2
20260906212833 32 132 0.0 6.4 0.00 0.00 0.00 29 1002.5
20260906211833 32 47 0.0 6.4 0.00 0.00 0.00 30 1002.6
20260906210833 32 211 0.0 6.4 0.00 0.00 0.00 31 1002.8
20260906205833 32 62 0.0 4.8 0.00 0.00 0.00 32 1003.1
20260906204833 32 53 0.0 1.6 0.00 0.00 0.00 31 1003.1
20260906203834 32 114 0.0 4.8 0.00 0.00 0.00 32 1003.3
20260906202833 31 297 0.0 3.2 0.00 0.00 0.00 32 1003.4
20260906201833 31 234 0.0 6.4 0.00 0.00 0.00 32 1003.5
20260906200833 31 79 0.0 1.6 0.00 0.00 0.00 32 1003.5
20260906195833 31 33 0.0 6.4 0.00 0.00 0.00 34 1003.6
20260906194833 30 86 0.0 6.4 0.00 0.00 0.00 37 1003.8
20260906193833 30 26 0.0 6.4 0.00 0.00 0.00 38 1003.8
20260906192833 30 60 0.0 8.0 0.00 0.00 0.00 39 1003.9
20260906191833 29 6 0.0 6.4 0.00 0.00 0.00 38 1004.1
20260906190833 29 44 0.0 6.4 0.00 0.00 0.00 41 1004.3
20260906185833 28 58 0.0 8.0 0.00 0.00 0.00 41 1004.5
20260906184833 28 72 0.0 6.4 0.00 0.00 0.00 40 1004.8
20260906183833 28 56 1.6 1.6 0.00 0.00 0.00 42 1005.1
20260906182833 28 63 0.0 4.8 0.00 0.00 0.00 40 1005.2
20260906181833 28 33 0.0 6.4 0.00 0.00 0.00 42 1005.4
20260906180833 27 94 0.0 1.6 0.00 0.00 0.00 44 1005.4
20260906175834 27 33 0.0 6.4 0.00 0.00 0.00 43 1005.7
20260906174833 26 113 0.0 1.6 0.00 0.00 0.00 44 1005.9
20260906173833 26 98 0.0 0.0 0.00 0.00 0.00 45 1006.3
20260906172833 26 114 0.0 3.2 0.00 0.00 0.00 47 1006.5
20260906161002 22 35 0.0 3.2 0.00 0.00 0.00 61 1007.0
20260906160002 22 339 0.0 6.4 0.00 0.00 0.00 62 1006.9
20260906155002 22 5 0.0 0.0 0.00 0.00 0.00 66 1007.0
20260906154002 21 17 1.6 4.8 0.00 0.00 0.00 67 1007.1
20260906153002 21 333 0.0 3.2 0.00 0.00 0.00 68 1007.1
20260906152002 21 1 0.0 0.0 0.00 0.00 0.00 68 1007.0
20260906151003 20 346 0.0 0.0 0.00 0.00 0.00 71 1007.2
20260906150002 20 348 0.0 1.6 0.00 0.00 0.00 71 1007.3
20260906145002 20 340 0.0 3.2 0.00 0.00 0.00 73 1007.1
20260906144002 19 342 0.0 3.2 0.00 0.00 0.00 74 1007.0
20260906143002 19 324 0.0 0.0 0.00 0.00 0.00 74 1007.3
20260906142002 18 323 0.0 0.0 0.00 0.00 0.00 74 1007.2
20260906141002 18 304 0.0 0.0 0.00 0.00 0.00 75 1007.2
20260906140002 18 311 0.0 1.6 0.00 0.00 0.00 76 1007.0
20260906135002 17 305 0.0 0.0 0.00 0.00 0.00 77 1007.0
20260906134002 17 68 0.0 0.0 0.00 0.00 0.00 78 1007.0
20260906133002 18 257 0.0 0.0 0.00 0.00 0.00 57 1007.2
20260906132002 18 257 0.0 0.0 0.00 0.00 0.00 57 1007.0
20260906131002 18 257 0.0 0.0 0.00 0.00 0.00 57 1006.9
20260906130002 18 257 0.0 0.0 0.00 0.00 0.00 57 1007.0
20260906125002 18 257 0.0 0.0 0.00 0.00 0.00 57 1006.8
20260906124002 18 257 0.0 0.0 0.00 0.00 0.00 57 1006.8
20260906123002 18 257 0.0 0.0 0.00 0.00 0.00 57 1006.8
20260906122002 18 257 0.0 0.0 0.00 0.00 0.00 57 1006.7
20260906121002 18 257 0.0 0.0 0.00 0.00 0.00 57 1006.6
20260906120002 18 257 0.0 0.0 0.00 0.00 0.00 57 1006.8
20260906115002 18 257 0.0 0.0 0.00 0.00 0.00 57 1006.7
20260906114002 18 108 0.0 0.0 0.00 0.00 0.00 57 1006.6
20260906113002 18 108 0.0 0.0 0.00 0.00 0.00 57 1006.7
20260906112002 18 108 0.0 0.0 0.00 0.00 0.00 57 1006.6
20260906111002 18 108 0.0 0.0 0.00 0.00 0.00 57 1006.4
20260906110002 18 108 0.0 0.0 0.00 0.00 0.00 57 1006.4
20260906105003 18 108 0.0 0.0 0.00 0.00 0.00 57 1006.5
20260906104002 18 108 0.0 0.0 0.00 0.00 0.00 57 1006.6
20260906103002 18 108 0.0 0.0 0.00 0.00 0.00 57 1006.3
20260906102002 18 108 0.0 0.0 0.00 0.00 0.00 57 1006.6
20260906101002 18 108 0.0 0.0 0.00 0.00 0.00 57 1006.5
20260906100002 18 108 0.0 0.0 0.00 0.00 0.00 57 1006.5
20260906095002 18 108 0.0 0.0 0.00 0.00 0.00 57 1006.5
20260906094002 18 108 0.0 0.0 0.00 0.00 0.00 57 1006.7
20260906093003 18 108 0.0 0.0 0.00 0.00 0.00 57 1006.7
20260906092002 18 108 0.0 0.0 0.00 0.00 0.00 57 1006.4
20260906091003 18 108 0.0 0.0 0.00 0.00 0.00 57 1006.3
20260906090002 19 108 0.0 0.0 0.00 0.00 0.00 56 1006.3
20260906085002 20 108 0.0 0.0 0.00 0.00 0.00 53 1006.1
20260906084002 20 109 0.0 1.6 0.00 0.00 0.00 51 1005.9
20260906083002 20 110 0.0 0.0 0.00 0.00 0.00 50 1005.9
20260906082002 20 110 0.0 0.0 0.00 0.00 0.00 49 1005.9
20260906081002 20 110 0.0 0.0 0.00 0.00 0.00 48 1005.5
20260906080002 20 110 0.0 0.0 0.00 0.00 0.00 50 1005.5
20260906075002 20 110 0.0 0.0 0.00 0.00 0.00 52 1005.5
20260906074002 20 110 0.0 0.0 0.00 0.00 0.00 52 1005.5
20260906073002 20 110 0.0 0.0 0.00 0.00 0.00 51 1005.6
20260906072002 20 110 0.0 0.0 0.00 0.00 0.00 51 1005.6
20260906071002 20 110 0.0 0.0 0.00 0.00 0.00 50 1005.6
20260906070002 21 110 0.0 0.0 0.00 0.00 0.00 49 1005.5
20260906065002 21 110 0.0 0.0 0.00 0.00 0.00 47 1005.6
20260906064002 22 110 0.0 0.0 0.00 0.00 0.00 46 1005.7
20260906063002 22 110 0.0 0.0 0.00 0.00 0.00 46 1005.9
20260906062002 22 110 0.0 0.0 0.00 0.00 0.00 45 1005.7
20260906061002 22 110 0.0 0.0 0.00 0.00 0.00 45 1005.8
20260906060002 23 110 0.0 0.0 0.00 0.00 0.00 45 1005.8
20260906055003 23 110 0.0 1.6 0.00 0.00 0.00 44 1005.2
20260906054002 23 119 0.0 0.0 0.00 0.00 0.00 46 1005.4
20260906053002 23 172 0.0 0.0 0.00 0.00 0.00 40 1006.1
20260906052003 23 98 0.0 1.6 0.00 0.00 0.00 40 1006.4
20260906051003 23 110 0.0 0.0 0.00 0.00 0.00 40 1006.6
20260906050003 23 117 0.0 0.0 0.00 0.00 0.00 42 1006.5
20260906045002 23 313 0.0 0.0 0.00 0.00 0.00 44 1006.0
20260906044002 23 313 0.0 0.0 0.00 0.00 0.00 42 1005.8
20260906043002 23 314 0.0 0.0 0.00 0.00 0.00 41 1005.5
20260906042003 23 314 0.0 0.0 0.00 0.00 0.00 43 1005.6
20260906041003 23 312 0.0 0.0 0.00 0.00 0.00 41 1005.5
20260906040002 23 312 0.0 0.0 0.00 0.00 0.00 41 1005.2
20260906035003 23 312 0.0 0.0 0.00 0.00 0.00 40 1005.1
20260906034002 23 312 0.0 0.0 0.00 0.00 0.00 39 1004.8
20260906033002 24 312 0.0 0.0 0.00 0.00 0.00 37 1004.7
20260906032002 24 314 0.0 0.0 0.00 0.00 0.00 36 1004.8
20260906031002 24 314 0.0 0.0 0.00 0.00 0.00 37 1004.5
20260906030003 25 312 0.0 0.0 0.00 0.00 0.00 36 1004.1
20260906025002 25 312 0.0 0.0 0.00 0.00 0.00 35 1003.7
20260906024002 25 312 0.0 0.0 0.00 0.00 0.00 34 1003.6
20260906023003 25 312 0.0 0.0 0.00 0.00 0.00 33 1003.6
20260906022002 26 312 0.0 0.0 0.00 0.00 0.00 32 1003.5
20260906021003 26 312 0.0 0.0 0.00 0.00 0.00 31 1003.5
20260906020002 26 312 0.0 1.6 0.00 0.00 0.00 30 1003.5
20260906015002 26 275 0.0 0.0 0.00 0.00 0.00 30 1003.5
20260906014002 27 275 0.0 0.0 0.00 0.00 0.00 30 1003.4
20260906013003 27 273 0.0 1.6 0.00 0.00 0.00 29 1003.1
20260906012002 27 292 0.0 1.6 0.00 0.00 0.00 29 1003.1
20260906011003 28 38 0.0 0.0 0.00 0.00 0.00 28 1003.1
20260906010002 28 312 0.0 1.6 0.00 0.00 0.00 28 1003.0
20260906005002 29 195 0.0 3.2 0.00 0.00 0.00 27 1003.1
20260906004003 30 32 0.0 8.0 0.00 0.00 0.00 26 1003.1
20260906003002 30 338 0.0 6.4 0.00 0.00 0.00 24 1003.1
20260906002002 30 321 0.0 3.2 0.00 0.00 0.00 23 1003.0
20260906001003 30 333 0.0 6.4 0.00 0.00 0.00 23 1003.0
20260906000002 31 330 0.0 4.8 0.00 0.00 0.00 22 1002.9
20260905235003 31 335 0.0 1.6 0.00 0.00 0.00 23 1002.9
20260905234002 31 333 0.0 4.8 0.00 0.00 0.00 22 1002.9
20260905233002 31 348 0.0 1.6 0.00 0.00 0.00 22 1002.8
20260905232002 32 349 0.0 1.6 0.00 0.00 0.00 21 1002.7
20260905231002 32 292 0.0 3.2 0.00 0.00 0.00 21 1002.6
20260905230002 32 14 0.0 3.2 0.00 0.00 0.00 21 1002.6
20260905225002 32 86 0.0 1.6 0.00 0.00 0.00 21 1002.5